Regional Weather Roundup
Issued by NWS Bismarck, ND

Home | Current Version | Previous Version | Text Only | Print | Product List | Glossary On
Versions: 1 2 3 4 5 6 7 8 9 10 11 12 13 14 15 16 17 18 19 20 21 22 23 24 25 26 27 28 29 30 31 32 33 34 35 36 37 38 39 40 41 42 43 44 45 46 47 48 49 50
000
ASUS43 KBIS 261410
RWRBIS

NWR BROADCAST TEXT
NATIONAL WEATHER SERVICE BISMARCK ND
900 AM CDT FRI MAY 26 2017

NOTE: "FAIR" INDICATES FEW OR NO CLOUDS BELOW 12,000 FEET WITH NO
SIGNIFICANT WEATHER AND/OR OBSTRUCTIONS TO VISIBILITY.


CITY           SKY/WX    TMP DP  RH WIND       PRES   REMARKS
WILLISTON      CLOUDY    53  41  63 W22       29.74R
MINOT          CLOUDY    55  43  63 W13G23    29.66S
MINOT AFB      CLOUDY    54  43  67 W22G29    29.65R
BISMARCK       CLOUDY    55  41  59 W16       29.76R
DICKINSON      CLOUDY    49  37  63 W21G29    29.78R
GARRISON         N/A     51  41  68 W20G28    29.71R
HETTINGER ARPT FAIR      51  38  60 NW26G35   29.83R
JAMESTOWN      FAIR      56  46  69 W15G22    29.70R
HAZEN          CLOUDY    54  41  62 W18       29.75S
LINTON           N/A     54  46  76 W14G21    29.79R
MANDAN         CLOUDY    52  41  66 W12       29.76S
STANLEY        PTSUNNY   48  48 100 W18G28    29.72R
TIOGA          CLOUDY    50  48  93 W23G30    29.72R
WATFORD CITY   CLOUDY    50  41  71 W16G26    29.75R
$$

CITY           SKY/WX    TMP DP  RH WIND       PRES   REMARKS
GRAND FORKS    FAIR      62  49  62 W13       29.63R
GRAND FORKS AF FAIR      61  48  63 W10       29.63R
DEVILS LAKE    PTSUNNY   55  46  71 W23       29.66S
FARGO          FAIR      61  49  64 W13       29.67R
CAVALIER       FAIR      59  48  67 W12       29.60R
GRAFTON        FAIR      59  50  72 W9        29.63S
GWINNER        SUNNY     59  48  67 MISG      29.72R
LANGDON        CLOUDY    55  50  82 W17       29.62S
ROLLA          CLOUDY    50  50 100 W16       29.63R
$$

CITY           SKY/WX    TMP DP  RH WIND       PRES   REMARKS
ABERDEEN       FAIR      59  42  53 W20G26    29.76R
MOBRIDGE       FAIR      56  40  55 NW20G25   29.77S
BUFFALO          N/A     53  37  54 NW23G29   29.81R
RAPID CITY     FAIR      57  35  43 N7        29.90S
GLASGOW        FAIR      51  40  65 W12       29.83R
SIDNEY         PTSUNNY   53  39  59 W15G23    29.79R
WOLF POINT     FAIR      55  39  54 W16       29.82R
GLENDIVE       CLOUDY    52  38  58 W20G28    29.84
MILES CITY     FAIR      55  37  50 NW8       29.89R
BAKER          FAIR      50  37  61 W16       29.86S
$$

CITY           SKY/WX    TMP DP  RH WIND       PRES   REMARKS
BILLINGS       FAIR      45  35  68 S8        29.95R
GREAT FALLS    FAIR      48  39  71 SW6       29.96S
REGINA         CLOUDY    48  43  81 W24G31    29.65R
ESTEVAN        DRIZZLE   48  46  93 W23       29.66R
$$




USA.gov is the U.S. government's official web portal to all federal, state and local government web resources and services.